Theta_e
316 316 317 316 316 315 316 317 318 319 319 317 317 317 317 317 318 317 317 316 316 317 317 318 318 317 317 317 317 317 314 315 315 315 314 313 312 311
319 318 317 317 315 316 317 317 317 318 318 318 317 316 317 317 318 317 317 317 317 317 317 318 318 318 318 317 317 317 316 315 315 314 313 313 312 312
319 319 318 316 316 317 316 319 319 318 316 316 316 317 317 317 317 317 317 317 317 317 317 317 317 317 318 318 317 317 317 316 314 315 313 314 313 310
319 318 317 317 317 315 315 315 318 317 316 316 317 317 316 316 317 317 317 317 317 317 317 317 317 317 319 318 317 317 316 314 314 314 312 312 310 307
318 318 319 318 316 316 314 314 315 316 317 317 317 317 317 317 317 317 317 317 317 317 318 318 318 317 318 316 317 317 316 315 313 311 311 308 305 304
315 315 316 317 316 315 314 314 315 316 316 317 318 317 316 316 317 317 316 315 315 317 317 317 317 317 318 316 315 315 315 313 311 310 308 305 303 301
317 316 317 317 316 315 316 315 315 315 315 316 316 316 316 317 316 316 316 317 316 317 318 317 317 317 317 317 315 314 312 310 309 307 305 304 302 296
321 321 321 321 321 320 319 319 315 314 314 315 315 316 316 316 316 316 317 317 316 317 317 318 318 317 316 316 313 309 308 306 303 301 300 299 297 292
322 321 321 321 321 321 321 320 319 317 316 315 315 316 316 316 316 317 317 317 317 317 316 316 316 315 313 311 307 305 304 302 300 298 297 294 290 289
323 322 322 322 322 322 322 321 321 320 319 318 317 317 317 317 317 318 318 318 318 316 314 310 309 309 305 304 301 300 298 297 296 295 292 290 289 288
324 324 324 323 323 321 321 320 321 321 321 320 320 318 318 318 318 318 318 317 315 310 308 305 303 299 297 296 296 295 294 292 291 290 289 288 287 287
324 324 324 324 324 323 323 322 321 322 321 320 320 319 317 317 317 316 315 310 309 303 299 297 295 295 293 292 291 291 290 289 288 287 287 287 287 287
324 323 321 323 324 323 323 321 321 320 320 318 313 307 302 302 302 301 300 301 301 299 292 293 292 291 292 290 290 288 287 287 286 286 286 285 285 284
317 319 319 320 320 318 318 319 317 315 312 305 298 295 294 294 293 293 293 294 292 293 291 291 291 289 288 287 286 286 286 285 285 285 285 283 283 281
312 306 297 304 308 311 307 301 295 294 294 292 292 291 290 289 290 291 291 290 289 288 288 287 286 286 285 284 283 282 283 283 281 281 281 279 279 279
298 295 297 295 296 293 293 293 293 292 293 293 291 289 290 290 290 288 288 287 287 286 285 284 284 283 282 281 280 278 278 278 277 276 276 276 275 275
292 293 292 291 289 289 288 289 289 288 288 286 286 285 285 285 285 284 285 284 284 282 282 280 279 278 277 276 276 275 275 275 274 274 273 273 273 274
291 289 287 287 287 287 287 285 286 285 284 284 284 283 283 283 283 283 281 279 277 276 276 275 276 276 275 274 274 274 273 273 273 273 273 272 272 273
288 286 285 285 284 284 283 283 282 282 282 283 283 283 282 279 278 277 276 275 275 274 274 274 273 273 273 273 274 273 272 272 272 272 272 272 272 272
285 284 284 283 282 282 282 282 282 281 280 278 276 275 275 275 275 274 274 273 273 272 272 272 272 272 271 271 271 274 272 271 271 271 272 272 272 273
282 282 282 281 281 280 280 279 277 276 275 275 274 274 274 273 273 273 272 272 272 272 272 271 271 271 270 270 271 272 273 272 271 271 272 272 273 273
280 280 279 278 278 276 275 274 274 274 273 273 273 272 272 272 272 272 271 271 271 271 270 270 270 270 270 270 270 271 272 273 273 274 274 274 272 272
276 275 274 274 274 273 273 272 272 272 272 272 272 271 271 271 270 270 270 270 270 270 270 270 271 271 271 270 271 271 271 272 273 275 277 277 277 277
Wind_Speed
36 44 47 45 42 44 42 36 34 31 32 33 32 32 32 32 34 34 37 37 35 33 33 35 36 38 38 40 42 44 45 45 46 47 44 43 42 42
45 47 47 45 43 42 43 44 43 38 36 39 40 44 41 38 34 35 33 36 39 38 39 39 39 40 40 41 39 45 47 48 48 48 47 48 46 45
47 50 49 45 43 41 41 46 46 40 39 48 49 48 44 47 41 38 37 38 40 42 47 46 41 40 43 41 44 46 43 39 44 45 43 48 47 44
50 51 51 48 49 47 51 50 51 51 54 54 54 53 51 53 50 48 48 46 47 46 44 39 40 40 43 43 40 45 41 42 46 45 45 47 48 44
51 53 53 51 53 54 53 54 56 58 56 55 57 56 57 55 54 54 50 50 49 47 45 42 44 41 40 40 46 49 43 50 45 46 49 46 41 39
58 58 58 60 62 59 58 58 58 58 57 57 59 62 60 59 57 56 56 55 54 51 46 42 41 43 45 43 40 45 46 45 45 45 45 42 40 35
61 63 63 63 64 63 61 64 63 62 61 54 52 50 49 49 56 57 54 54 53 48 46 46 46 43 45 46 40 42 43 43 44 46 45 43 39 27
56 58 60 60 62 63 62 62 62 59 60 55 52 49 51 49 50 53 50 52 52 49 47 51 47 45 43 45 41 40 40 41 39 38 34 31 27 18
52 52 53 53 53 54 55 54 54 57 60 61 56 56 54 50 50 48 50 52 54 53 50 50 45 42 40 40 35 38 39 38 35 30 29 20 15 19
53 53 53 52 52 50 50 51 49 49 52 55 60 62 62 56 55 53 53 54 56 58 51 40 36 34 34 31 32 34 30 28 26 24 19 16 17 23
51 50 52 52 49 45 45 47 48 48 47 50 52 57 60 60 62 64 64 57 53 45 38 34 30 27 25 23 24 23 22 19 17 15 16 19 24 28
52 55 52 54 52 50 52 52 53 53 52 54 54 56 60 61 62 64 61 45 44 31 26 24 20 25 16 17 17 18 17 16 17 19 22 27 32 32
50 54 57 60 54 59 60 58 57 57 55 55 50 42 31 27 26 24 23 25 29 19 16 17 17 16 11 10 14 15 16 18 20 22 23 27 31 33
38 47 52 58 59 56 56 58 55 55 48 38 26 16 13 12 12 11 11 9 6 6 9 8 9 9 8 8 10 13 18 21 25 27 28 29 29 28
31 25 16 32 37 39 33 20 22 20 21 20 22 20 14 12 10 8 8 7 5 3 1 2 3 5 6 7 11 15 18 20 22 23 22 26 30 30
3 2 3 4 9 11 11 14 14 14 14 13 12 12 13 12 8 6 5 5 4 3 3 5 6 7 9 10 13 15 17 15 20 25 28 30 31 31
13 13 17 21 24 25 21 24 23 21 18 17 16 12 11 8 8 6 4 4 4 3 7 9 9 10 11 13 14 17 18 20 22 26 28 30 30 29
18 21 24 24 25 23 21 17 19 16 14 11 10 8 8 7 7 8 9 7 5 5 6 8 10 10 9 8 10 14 18 21 23 24 26 30 33 30
21 24 24 22 22 20 17 16 15 13 8 6 6 5 6 7 6 5 4 5 4 4 7 9 10 12 14 15 14 13 24 24 26 27 27 29 33 33
19 19 19 18 17 15 13 11 10 7 7 8 6 7 7 6 7 6 5 5 5 6 7 8 10 13 15 18 22 22 20 24 25 29 31 32 34 34
14 14 13 13 12 10 9 7 6 6 7 6 6 8 8 7 6 6 6 6 6 7 7 9 11 12 14 15 18 23 21 20 21 25 29 33 37 40
11 10 9 8 7 6 6 6 6 6 6 5 7 7 7 7 5 5 5 5 6 7 8 8 10 12 14 17 22 26 28 24 19 21 22 26 29 35
6 6 6 6 5 5 5 5 5 5 5 6 6 5 6 5 4 5 5 6 6 6 7 10 12 14 16 20 22 25 24 25 27 31 28 20 19 21
Wind_Direction
230 229 233 239 243 247 247 249 244 246 253 250 255 264 270 276 269 271 265 268 276 272 277 277 280 278 282 278 270 268 266 265 265 264 261 260 261 264
235 238 241 245 246 247 249 252 251 249 253 257 264 269 269 273 273 275 263 264 268 274 274 276 277 278 278 280 275 276 266 265 270 261 258 261 261 262
238 241 245 247 251 250 251 251 248 246 267 262 263 266 270 276 269 276 269 267 275 277 277 273 274 275 274 271 282 284 266 270 273 266 254 254 255 258
243 246 247 246 244 247 251 253 252 259 263 262 262 263 269 274 274 277 280 273 275 280 275 272 272 270 271 275 279 275 258 263 269 262 251 252 254 252
246 247 249 248 250 251 252 254 254 257 261 261 260 263 270 273 275 277 276 278 280 280 274 270 268 272 268 276 273 279 259 264 255 252 253 250 249 248
251 253 254 253 254 256 255 257 259 261 261 260 261 265 269 272 274 276 277 279 278 277 273 275 275 272 267 273 274 271 260 261 258 258 252 246 243 245
256 258 258 256 257 258 257 260 261 262 262 257 258 260 263 262 269 281 278 280 280 278 276 275 274 270 274 269 274 266 258 257 254 251 242 240 245 247
256 258 260 261 260 260 261 262 260 258 260 256 257 256 259 260 265 274 272 270 272 277 275 273 270 273 271 268 265 256 250 248 243 240 244 248 247 250
261 262 263 263 264 265 264 264 263 259 260 262 259 261 261 261 266 264 267 269 273 267 268 266 262 262 262 262 252 242 240 235 235 241 239 234 242 249
264 264 264 266 266 267 269 268 269 266 263 261 261 262 261 260 264 263 268 266 267 260 254 244 248 241 243 239 231 226 226 231 235 236 242 248 251 254
265 266 266 268 267 268 268 269 267 266 265 263 262 262 263 263 261 260 260 257 246 241 240 239 230 219 212 215 218 220 220 226 233 241 250 254 254 255
268 267 267 267 267 266 263 262 262 263 263 263 262 261 261 260 262 262 257 249 239 227 221 208 200 199 184 200 214 228 232 234 235 233 238 252 263 268
266 261 257 261 262 263 259 259 259 257 256 254 250 248 249 248 247 241 235 230 226 211 191 197 186 198 187 172 207 225 240 243 247 255 265 273 276 277
253 252 254 253 251 249 252 248 243 243 241 231 216 187 164 149 137 143 151 151 139 153 168 196 195 208 223 223 232 240 248 255 262 268 272 273 271 273
252 244 236 255 259 256 251 226 189 183 178 159 143 132 122 107 107 116 120 108 114 112 134 231 259 272 276 285 287 292 296 290 290 283 279 282 287 288
209 172 85 74 100 103 121 120 113 123 131 125 121 118 129 131 132 108 90 83 67 39 319 312 314 307 309 308 300 295 293 294 285 291 291 292 293 293
115 106 112 117 110 110 103 112 122 127 125 118 120 118 110 100 93 78 62 63 66 352 327 329 328 322 315 303 301 296 299 300 301 302 303 304 303 304
106 103 99 96 98 99 102 93 98 98 98 104 101 93 72 68 48 34 12 14 13 353 336 332 331 324 316 321 303 302 306 311 313 313 312 309 305 307
95 97 95 94 94 93 93 95 85 87 84 80 64 64 32 20 32 33 18 20 25 9 359 355 352 344 344 338 326 329 327 324 321 315 312 309 307 307
85 85 84 82 81 80 78 74 74 68 46 41 42 48 44 43 43 45 39 41 41 34 18 3 352 350 344 336 325 328 330 322 321 317 314 310 306 306
81 80 77 75 72 64 59 49 50 51 51 44 35 40 44 40 40 40 36 29 24 21 7 358 351 344 333 322 319 325 332 331 324 317 314 310 310 306
73 70 70 65 58 57 55 49 47 47 46 47 50 46 43 36 26 22 22 23 9 10 5 354 344 338 338 340 335 334 332 331 325 316 308 301 294 283
62 56 55 53 54 51 48 49 47 45 37 34 34 27 33 25 17 6 1 3 358 356 354 349 350 346 345 341 336 335 337 334 335 335 334 336 319 295